Home   Weather   Kreuztal   Past weeks

Flag for Germany Past Weather in Kreuztal, North Rhine-Westphalia, Germany — Yesterday and Last 2 Weeks

Now
19 °F

Clear.


Feels Like: 19 °F
Forecast: 6 / 25 °F
Wind: 2 mph from North

Location: Koeln / Bonn

Current Time: Jan 22, 2017 at 11:39:26 pm

Latest Report: Jan 22, 2017 at 10:50 pm


Visibility: 10 mi

Pressure: 30.30 "Hg

Humidity: 93%

Dew Point: 18 °F

Location of KreuztalLocation

Past Weather in Kreuztal — Graph

°F

Kreuztal Temperature Yesterday

Maximum temperature yesterday: 39 °F (at 1:50 pm)
Minimum temperature yesterday: 19 °F (at 6:50 am)
Average temperature yesterday: 29 °F

High & Low Weather Summary for the Past Weeks

 TemperatureHumidityPressure
High46 °F (Jan 11, 4:20 pm)100% (Jan 7, 10:20 pm)30.69 "Hg (Jan 7, 10:20 pm)
Low12 °F (Jan 18, 7:20 am)42% (Jan 20, 1:20 pm)28.97 "Hg (Jan 13, 1:20 am)
Average32 °F85%30.19 "Hg
* Reported Jan 7 10:20 pm — Jan 22 10:20 pm, Kreuztal, Weather by CustomWeather, © 2017

Note: Actual official high and low records may vary slightly from our data, if they occured in-between our weather recording intervals... More about our weather records

Advertising

Kreuztal Weather History for the Previous 24 Hours

Scroll right to see more
 ConditionsComfort  
Time TempWeatherWind HumidityBarometerVisibility
10:20 pm
Sun, Jan 22
19 °FClear.No wind93%30.30 "Hg10 mi
9:50 pm19 °FClear.1 mph86%30.30 "Hg10 mi
9:20 pm23 °FClear.3 mph86%30.30 "Hg10 mi
8:50 pm23 °FClear.2 mph80%30.30 "Hg10 mi
8:20 pm23 °FClear.1 mph86%30.30 "Hg10 mi
7:50 pm27 °FClear.2 mph74%30.30 "Hg10 mi
7:20 pm27 °FClear.1 mph74%30.30 "Hg10 mi
6:50 pm27 °FClear.2 mph74%30.30 "Hg10 mi
6:20 pm28 °FClear.2 mph69%30.30 "Hg10 mi
5:50 pm28 °FClear.1 mph69%30.30 "Hg10 mi
5:20 pm30 °FClear.2 mph64%30.27 "Hg10 mi
4:50 pm34 °FSunny.No wind56%30.27 "Hg10 mi
4:20 pm36 °FSunny.1 mph52%30.27 "Hg10 mi
3:50 pm36 °FSunny.2 mph52%30.27 "Hg10 mi
3:20 pm36 °FPassing clouds.6 mph52%30.27 "HgN/A
2:50 pm36 °FSunny.2 mph52%30.27 "Hg10 mi
2:20 pm36 °FSunny.2 mph52%30.30 "Hg10 mi
1:50 pm36 °FSunny.5 mph52%30.30 "Hg10 mi
1:20 pm34 °FPassing clouds.6 mph56%30.30 "HgN/A
12:50 pm34 °FPassing clouds.9 mph56%30.30 "HgN/A
12:20 pm32 °FPassing clouds.6 mph60%30.33 "HgN/A
11:50 am32 °FPassing clouds.3 mph60%30.33 "HgN/A
11:20 am28 °FSunny.6 mph69%30.33 "Hg10 mi
10:50 am27 °FSunny.6 mph74%30.33 "Hg10 mi
10:20 am27 °FPassing clouds.5 mph69%30.33 "HgN/A
9:50 am23 °FSunny.2 mph80%30.33 "Hg10 mi
9:20 am18 °FSunny.3 mph93%30.33 "Hg10 mi
8:50 am18 °FPassing clouds.3 mph93%30.33 "HgN/A
8:20 am16 °FPassing clouds.3 mph86%30.33 "HgN/A
7:50 am16 °FClear.2 mph93%30.33 "Hg10 mi
7:20 am18 °FClear.No wind93%30.33 "Hg10 mi
6:50 am18 °FClear.1 mph86%30.33 "Hg10 mi
6:20 am25 °FPassing clouds.3 mph74%30.33 "HgN/A
5:50 am23 °FClear.3 mph80%30.33 "Hg10 mi
5:20 am27 °FClear.6 mph69%30.33 "Hg10 mi
4:50 am27 °FPassing clouds.3 mph69%30.33 "HgN/A
4:20 am25 °FClear.2 mph74%30.33 "Hg10 mi
3:50 am27 °FClear.2 mph69%30.33 "Hg10 mi
3:20 am27 °FPassing clouds.3 mph69%30.36 "HgN/A
2:50 am27 °FPassing clouds.3 mph69%30.33 "HgN/A
2:20 am28 °FPassing clouds.5 mph69%30.33 "HgN/A
1:50 am28 °FPassing clouds.6 mph69%30.36 "HgN/A
1:20 am28 °FPassing clouds.6 mph69%30.36 "HgN/A
12:50 am28 °FPassing clouds.6 mph69%30.36 "HgN/A
12:20 am28 °FClear.6 mph69%30.36 "Hg10 mi
11:50 pm
Sat, Jan 21
28 °FPassing clouds.3 mph69%30.36 "HgN/A
11:20 pm28 °FPassing clouds.5 mph74%30.36 "HgN/A
Weather by CustomWeather, © 2017

See weather overviewHow to use our weather pages